Location: Acts Church of Fort Worth
(32.6786°N, 97.2668°W)
Time: 09:18:14
(UTC+00:00)

Cosmos 1833 Rocket - Pass Details

Date: 18 January 2026
Orbit: 831 x 839 km, 71.0° (Epoch: 10 February)

Event Time Altitude Azimuth Distance (km) Brightness Sun altitude
Exits shadow 11:09:07 76° 103° (ESE) 861 2.7 -29.5°
Drops below altitude 10° 11:14:27 10° 156° (SSE) 2,432 5.4 -28.4°
Sets 11:16:52 0° 158° (SSE) 3,361 6.2 -27.8°
